Location: Newark
(25.4297°S, 49.2719°W)
Time: 10:51:51
(UTC+00:00)

Hubble Space Telescope - Visible Passes

Search period start: 18 October 2019 00:00
Search period end: 28 October 2019 00:00
Orbit: 536 x 540 km, 28.5° (Epoch: 17 October)

Date Brightness Start Highest point End Pass type
(mag) Time Alt. Az. Time Alt. Az. Time Alt. Az.
18 Oct 3.2 06:24:19 18° ENE 06:24:19 18° ENE 06:25:25 10° ENE visible
18 Oct 2.2 07:59:41 13° WNW 08:02:14 22° NNW 08:05:26 10° NNE visible
19 Oct 2.5 07:50:18 15° NW 07:51:36 17° NNW 07:54:17 10° NNE visible
19 Oct 3.3 23:11:54 10° NNW 23:12:06 11° NNW 23:12:06 11° NNW visible
20 Oct 2.8 07:41:02 13° NNW 07:41:02 13° NNW 07:42:47 10° N visible
20 Oct 2.4 23:00:58 10° NW 23:02:58 22° NNW 23:02:58 22° NNW visible
21 Oct 1.4 22:50:08 10° NW 22:53:44 38° NNE 22:53:44 38° NNE visible
22 Oct 1.0 22:39:23 10° NW 22:43:24 48° NNE 22:44:24 39° ENE visible
23 Oct 0.8 22:28:42 10° WNW 22:32:48 61° NNE 22:34:57 27° E visible
24 Oct 3.8 00:09:55 10° W 00:10:18 12° W 00:10:18 12° W visible
24 Oct 0.7 22:18:05 10° WNW 22:22:15 75° NNE 22:25:23 17° E visible
24 Oct 3.3 23:59:26 10° W 00:00:44 19° W 00:00:44 19° W visible
25 Oct 0.8 22:07:30 10° WNW 22:11:41 89° NNE 22:15:41 11° ESE visible
25 Oct 2.8 23:48:55 10° W 23:51:02 27° WSW 23:51:02 27° WSW visible
26 Oct 0.9 21:56:57 10° W 22:01:08 79° SSW 22:05:19 10° ESE visible
26 Oct 2.2 23:38:25 10° WSW 23:41:15 38° SW 23:41:15 38° SW visible
27 Oct 1.1 21:46:26 10° W 21:50:36 69° S 21:54:46 10° ESE visible
27 Oct 1.6 23:27:53 10° WSW 23:31:22 49° SW 23:31:22 49° SW visible
